#datetime,building,power
2024-03-25T00:00:00,mnr,8.80
2024-03-25T00:01:00,mnr,8.32
2024-03-25T00:02:00,mnr,8.32
2024-03-25T00:03:00,mnr,8.39
2024-03-25T00:04:00,mnr,8.57
2024-03-25T00:05:00,mnr,8.70
2024-03-25T00:06:00,mnr,9.19
2024-03-25T00:07:00,mnr,8.56
2024-03-25T00:08:00,mnr,8.05
2024-03-25T00:09:00,mnr,8.06
2024-03-25T00:10:00,mnr,8.01
2024-03-25T00:11:00,mnr,9.45
2024-03-25T00:12:00,mnr,8.79
2024-03-25T00:13:00,mnr,8.16
2024-03-25T00:14:00,mnr,8.15
2024-03-25T00:15:00,mnr,8.87
2024-03-25T00:16:00,mnr,9.52
2024-03-25T00:17:00,mnr,9.51
2024-03-25T00:18:00,mnr,9.53
2024-03-25T00:19:00,mnr,9.42
2024-03-25T00:20:00,mnr,9.40
2024-03-25T00:21:00,mnr,9.36
2024-03-25T00:22:00,mnr,9.37
2024-03-25T00:23:00,mnr,9.36
2024-03-25T00:24:00,mnr,10.05
2024-03-25T00:25:00,mnr,9.53
2024-03-25T00:26:00,mnr,9.50
2024-03-25T00:27:00,mnr,10.28
2024-03-25T00:28:00,mnr,10.28
2024-03-25T00:29:00,mnr,10.32
2024-03-25T00:30:00,mnr,10.29
2024-03-25T00:31:00,mnr,10.04
2024-03-25T00:32:00,mnr,10.03
2024-03-25T00:33:00,mnr,9.50
2024-03-25T00:34:00,mnr,9.50
2024-03-25T00:35:00,mnr,9.48
2024-03-25T00:36:00,mnr,9.54
2024-03-25T00:37:00,mnr,9.72
2024-03-25T00:38:00,mnr,9.50
2024-03-25T00:39:00,mnr,9.50
2024-03-25T00:40:00,mnr,9.40
2024-03-25T00:41:00,mnr,9.42
2024-03-25T00:42:00,mnr,9.42
2024-03-25T00:43:00,mnr,9.35
2024-03-25T00:44:00,mnr,10.13
2024-03-25T00:45:00,mnr,9.31
2024-03-25T00:46:00,mnr,9.56
2024-03-25T00:47:00,mnr,9.73
2024-03-25T00:48:00,mnr,9.34
2024-03-25T00:49:00,mnr,9.72
2024-03-25T00:50:00,mnr,9.69
2024-03-25T00:51:00,mnr,9.72
2024-03-25T00:52:00,mnr,9.89
2024-03-25T00:53:00,mnr,9.88
2024-03-25T00:54:00,mnr,9.83
2024-03-25T00:55:00,mnr,9.85
2024-03-25T00:56:00,mnr,9.50
2024-03-25T00:57:00,mnr,9.62
2024-03-25T00:58:00,mnr,9.78
2024-03-25T00:59:00,mnr,9.43
2024-03-25T01:00:00,mnr,9.42
2024-03-25T01:01:00,mnr,9.43
2024-03-25T01:02:00,mnr,9.41
2024-03-25T01:03:00,mnr,9.41
2024-03-25T01:04:00,mnr,10.04
2024-03-25T01:05:00,mnr,9.43
2024-03-25T01:06:00,mnr,9.38
2024-03-25T01:07:00,mnr,9.39
2024-03-25T01:08:00,mnr,9.65
2024-03-25T01:09:00,mnr,9.47
2024-03-25T01:10:00,mnr,9.01
2024-03-25T01:11:00,mnr,8.95
2024-03-25T01:12:00,mnr,8.17
2024-03-25T01:13:00,mnr,8.63
2024-03-25T01:14:00,mnr,8.11
2024-03-25T01:15:00,mnr,8.49
2024-03-25T01:16:00,mnr,8.12
2024-03-25T01:17:00,mnr,8.13
2024-03-25T01:18:00,mnr,8.12
2024-03-25T01:19:00,mnr,7.97
2024-03-25T01:20:00,mnr,7.97
2024-03-25T01:21:00,mnr,7.96
2024-03-25T01:22:00,mnr,8.73
2024-03-25T01:23:00,mnr,9.07
2024-03-25T01:24:00,mnr,9.67
2024-03-25T01:25:00,mnr,9.57
2024-03-25T01:26:00,mnr,9.59
2024-03-25T01:27:00,mnr,9.59
2024-03-25T01:28:00,mnr,9.56
2024-03-25T01:29:00,mnr,9.57
2024-03-25T01:30:00,mnr,9.60
2024-03-25T01:31:00,mnr,10.25
2024-03-25T01:32:00,mnr,9.56
2024-03-25T01:33:00,mnr,9.57
2024-03-25T01:34:00,mnr,9.58
2024-03-25T01:35:00,mnr,9.57
2024-03-25T01:36:00,mnr,9.26
2024-03-25T01:37:00,mnr,9.20
2024-03-25T01:38:00,mnr,8.76
2024-03-25T01:39:00,mnr,8.74
2024-03-25T01:40:00,mnr,8.76
2024-03-25T01:41:00,mnr,8.27
2024-03-25T01:42:00,mnr,8.34
2024-03-25T01:43:00,mnr,8.29
2024-03-25T01:44:00,mnr,8.52
2024-03-25T01:45:00,mnr,8.31
2024-03-25T01:46:00,mnr,8.30
2024-03-25T01:47:00,mnr,8.35
2024-03-25T01:48:00,mnr,8.36
2024-03-25T01:49:00,mnr,8.42
2024-03-25T01:50:00,mnr,8.88
2024-03-25T01:51:00,mnr,8.35
2024-03-25T01:52:00,mnr,8.37
2024-03-25T01:53:00,mnr,8.31
2024-03-25T01:54:00,mnr,8.31
2024-03-25T01:55:00,mnr,8.28
2024-03-25T01:56:00,mnr,8.32
2024-03-25T01:57:00,mnr,8.29
2024-03-25T01:58:00,mnr,9.42
2024-03-25T01:59:00,mnr,8.49
2024-03-25T02:00:00,mnr,8.30
2024-03-25T02:01:00,mnr,7.66
2024-03-25T02:02:00,mnr,8.35
2024-03-25T02:03:00,mnr,7.50
2024-03-25T02:04:00,mnr,7.43
2024-03-25T02:05:00,mnr,7.51
2024-03-25T02:06:00,mnr,7.55
2024-03-25T02:07:00,mnr,7.48
2024-03-25T02:08:00,mnr,7.65
2024-03-25T02:09:00,mnr,7.65
2024-03-25T02:10:00,mnr,7.64
2024-03-25T02:11:00,mnr,7.69
2024-03-25T02:12:00,mnr,7.57
2024-03-25T02:13:00,mnr,7.76
2024-03-25T02:14:00,mnr,7.56
2024-03-25T02:15:00,mnr,7.57
2024-03-25T02:16:00,mnr,8.08
2024-03-25T02:17:00,mnr,7.59
2024-03-25T02:18:00,mnr,7.50
2024-03-25T02:19:00,mnr,7.92
2024-03-25T02:20:00,mnr,7.82
2024-03-25T02:21:00,mnr,7.86
2024-03-25T02:22:00,mnr,8.45
2024-03-25T02:23:00,mnr,7.77
2024-03-25T02:24:00,mnr,8.56
2024-03-25T02:25:00,mnr,7.84
2024-03-25T02:26:00,mnr,7.77
2024-03-25T02:27:00,mnr,7.81
2024-03-25T02:28:00,mnr,7.85
2024-03-25T02:29:00,mnr,7.79
2024-03-25T02:30:00,mnr,7.78
2024-03-25T02:31:00,mnr,7.84
2024-03-25T02:32:00,mnr,7.80
2024-03-25T02:33:00,mnr,7.85
2024-03-25T02:34:00,mnr,7.84
2024-03-25T02:35:00,mnr,7.80
2024-03-25T02:36:00,mnr,7.73
2024-03-25T02:37:00,mnr,7.69
2024-03-25T02:38:00,mnr,7.72
2024-03-25T02:39:00,mnr,7.72
2024-03-25T02:40:00,mnr,7.78
2024-03-25T02:41:00,mnr,7.79
2024-03-25T02:42:00,mnr,7.86
2024-03-25T02:43:00,mnr,7.84
2024-03-25T02:44:00,mnr,8.30
2024-03-25T02:45:00,mnr,8.42
2024-03-25T02:46:00,mnr,7.86
2024-03-25T02:47:00,mnr,7.87
2024-03-25T02:48:00,mnr,7.83
2024-03-25T02:49:00,mnr,7.81
2024-03-25T02:50:00,mnr,7.79
2024-03-25T02:51:00,mnr,7.78
2024-03-25T02:52:00,mnr,7.92
2024-03-25T02:53:00,mnr,7.87
2024-03-25T02:54:00,mnr,7.84
2024-03-25T02:55:00,mnr,7.84
2024-03-25T02:56:00,mnr,8.09
2024-03-25T02:57:00,mnr,7.90
2024-03-25T02:58:00,mnr,8.68
2024-03-25T02:59:00,mnr,7.88
2024-03-25T03:00:00,mnr,7.80
2024-03-25T03:01:00,mnr,7.98
2024-03-25T03:02:00,mnr,7.72
2024-03-25T03:03:00,mnr,7.71
2024-03-25T03:04:00,mnr,7.72
2024-03-25T03:05:00,mnr,7.70
2024-03-25T03:06:00,mnr,7.67
2024-03-25T03:07:00,mnr,8.32
2024-03-25T03:08:00,mnr,7.63
2024-03-25T03:09:00,mnr,7.67
2024-03-25T03:10:00,mnr,7.59
2024-03-25T03:11:00,mnr,7.67
2024-03-25T03:12:00,mnr,7.70
2024-03-25T03:13:00,mnr,7.68
2024-03-25T03:14:00,mnr,7.21
2024-03-25T03:15:00,mnr,7.18
2024-03-25T03:16:00,mnr,7.21
2024-03-25T03:17:00,mnr,7.19
2024-03-25T03:18:00,mnr,7.20
2024-03-25T03:19:00,mnr,7.26
2024-03-25T03:20:00,mnr,7.22
2024-03-25T03:21:00,mnr,7.22
2024-03-25T03:22:00,mnr,7.26
2024-03-25T03:23:00,mnr,7.27
2024-03-25T03:24:00,mnr,7.23
2024-03-25T03:25:00,mnr,7.22
2024-03-25T03:26:00,mnr,7.19
2024-03-25T03:27:00,mnr,7.21
2024-03-25T03:28:00,mnr,7.20
2024-03-25T03:29:00,mnr,7.60
2024-03-25T03:30:00,mnr,7.13
2024-03-25T03:31:00,mnr,7.87
2024-03-25T03:32:00,mnr,7.13
2024-03-25T03:33:00,mnr,7.14
2024-03-25T03:34:00,mnr,7.15
2024-03-25T03:35:00,mnr,7.17
2024-03-25T03:36:00,mnr,7.15
2024-03-25T03:37:00,mnr,7.25
2024-03-25T03:38:00,mnr,7.66
2024-03-25T03:39:00,mnr,7.24
2024-03-25T03:40:00,mnr,7.26
2024-03-25T03:41:00,mnr,7.22
2024-03-25T03:42:00,mnr,7.34
2024-03-25T03:43:00,mnr,7.37
2024-03-25T03:44:00,mnr,7.40
2024-03-25T03:45:00,mnr,8.10
2024-03-25T03:46:00,mnr,7.44
2024-03-25T03:47:00,mnr,7.56
2024-03-25T03:48:00,mnr,7.53
2024-03-25T03:49:00,mnr,8.19
2024-03-25T03:50:00,mnr,7.51
2024-03-25T03:51:00,mnr,7.43
2024-03-25T03:52:00,mnr,7.41
2024-03-25T03:53:00,mnr,9.16
2024-03-25T03:54:00,mnr,7.76
2024-03-25T03:55:00,mnr,7.86
2024-03-25T03:56:00,mnr,7.90
2024-03-25T03:57:00,mnr,7.91
2024-03-25T03:58:00,mnr,8.11
2024-03-25T03:59:00,mnr,7.91
2024-03-25T04:00:00,mnr,7.93
2024-03-25T04:01:00,mnr,7.77
2024-03-25T04:02:00,mnr,8.28
2024-03-25T04:03:00,mnr,8.40
2024-03-25T04:04:00,mnr,7.72
2024-03-25T04:05:00,mnr,7.72
2024-03-25T04:06:00,mnr,7.75
2024-03-25T04:07:00,mnr,7.73
2024-03-25T04:08:00,mnr,8.39
2024-03-25T04:09:00,mnr,7.64
2024-03-25T04:10:00,mnr,7.63
2024-03-25T04:11:00,mnr,7.60
2024-03-25T04:12:00,mnr,7.56
2024-03-25T04:13:00,mnr,7.65
2024-03-25T04:14:00,mnr,7.63
2024-03-25T04:15:00,mnr,7.63
2024-03-25T04:16:00,mnr,8.18
2024-03-25T04:17:00,mnr,7.66
2024-03-25T04:18:00,mnr,7.59
2024-03-25T04:19:00,mnr,7.60
2024-03-25T04:20:00,mnr,7.58
2024-03-25T04:21:00,mnr,7.60
2024-03-25T04:22:00,mnr,7.56
2024-03-25T04:23:00,mnr,7.58
2024-03-25T04:24:00,mnr,7.62
2024-03-25T04:25:00,mnr,7.59
2024-03-25T04:26:00,mnr,7.61
2024-03-25T04:27:00,mnr,7.86
2024-03-25T04:28:00,mnr,7.63
2024-03-25T04:29:00,mnr,7.59
2024-03-25T04:30:00,mnr,8.79
2024-03-25T04:31:00,mnr,7.70
2024-03-25T04:32:00,mnr,7.68
2024-03-25T04:33:00,mnr,7.69
2024-03-25T04:34:00,mnr,7.70
2024-03-25T04:35:00,mnr,7.64
2024-03-25T04:36:00,mnr,7.77
2024-03-25T04:37:00,mnr,7.78
2024-03-25T04:38:00,mnr,7.78
2024-03-25T04:39:00,mnr,7.74
2024-03-25T04:40:00,mnr,7.72
2024-03-25T04:41:00,mnr,7.73
2024-03-25T04:42:00,mnr,7.74
2024-03-25T04:43:00,mnr,7.74
2024-03-25T04:44:00,mnr,7.74
2024-03-25T04:45:00,mnr,8.42
2024-03-25T04:46:00,mnr,7.88
2024-03-25T04:47:00,mnr,7.74
2024-03-25T04:48:00,mnr,7.72
2024-03-25T04:49:00,mnr,8.03
2024-03-25T04:50:00,mnr,7.34
2024-03-25T04:51:00,mnr,7.33
2024-03-25T04:52:00,mnr,7.27
2024-03-25T04:53:00,mnr,7.16
2024-03-25T04:54:00,mnr,7.12
2024-03-25T04:55:00,mnr,7.11
2024-03-25T04:56:00,mnr,7.84
2024-03-25T04:57:00,mnr,8.56
2024-03-25T04:58:00,mnr,7.78
2024-03-25T04:59:00,mnr,8.09
2024-03-25T05:00:00,mnr,7.18
2024-03-25T05:01:00,mnr,7.82
2024-03-25T05:02:00,mnr,7.18
2024-03-25T05:03:00,mnr,7.16
2024-03-25T05:04:00,mnr,7.17
2024-03-25T05:05:00,mnr,7.22
2024-03-25T05:06:00,mnr,7.24
2024-03-25T05:07:00,mnr,7.29
2024-03-25T05:08:00,mnr,7.30
2024-03-25T05:09:00,mnr,7.86
2024-03-25T05:10:00,mnr,7.34
2024-03-25T05:11:00,mnr,8.04
2024-03-25T05:12:00,mnr,7.30
2024-03-25T05:13:00,mnr,7.42
2024-03-25T05:14:00,mnr,7.29
2024-03-25T05:15:00,mnr,7.29
2024-03-25T05:16:00,mnr,7.28
2024-03-25T05:17:00,mnr,7.39
2024-03-25T05:18:00,mnr,7.70
2024-03-25T05:19:00,mnr,7.36
2024-03-25T05:20:00,mnr,7.36
2024-03-25T05:21:00,mnr,7.61
2024-03-25T05:22:00,mnr,7.36
2024-03-25T05:23:00,mnr,7.46
2024-03-25T05:24:00,mnr,7.47
2024-03-25T05:25:00,mnr,7.48
2024-03-25T05:26:00,mnr,7.43
2024-03-25T05:27:00,mnr,8.29
2024-03-25T05:28:00,mnr,7.64
2024-03-25T05:29:00,mnr,7.64
2024-03-25T05:30:00,mnr,7.76
2024-03-25T05:31:00,mnr,7.73
2024-03-25T05:32:00,mnr,7.75
2024-03-25T05:33:00,mnr,8.45
2024-03-25T05:34:00,mnr,7.74
2024-03-25T05:35:00,mnr,7.75
2024-03-25T05:36:00,mnr,7.78
2024-03-25T05:37:00,mnr,7.79
2024-03-25T05:38:00,mnr,7.77
2024-03-25T05:39:00,mnr,7.76
2024-03-25T05:40:00,mnr,7.73
2024-03-25T05:41:00,mnr,7.80
2024-03-25T05:42:00,mnr,7.86
2024-03-25T05:43:00,mnr,7.80
2024-03-25T05:44:00,mnr,8.61
2024-03-25T05:45:00,mnr,7.72
2024-03-25T05:46:00,mnr,7.65
2024-03-25T05:47:00,mnr,7.63
2024-03-25T05:48:00,mnr,7.66
2024-03-25T05:49:00,mnr,7.58
2024-03-25T05:50:00,mnr,7.64
2024-03-25T05:51:00,mnr,7.79
2024-03-25T05:52:00,mnr,7.62
2024-03-25T05:53:00,mnr,7.64
2024-03-25T05:54:00,mnr,8.31
2024-03-25T05:55:00,mnr,7.70
2024-03-25T05:56:00,mnr,7.74
2024-03-25T05:57:00,mnr,7.75
2024-03-25T05:58:00,mnr,7.75
2024-03-25T05:59:00,mnr,7.72
2024-03-25T06:00:00,mnr,7.65
2024-03-25T06:01:00,mnr,8.17
2024-03-25T06:02:00,mnr,10.05
2024-03-25T06:03:00,mnr,11.51
2024-03-25T06:04:00,mnr,12.20
2024-03-25T06:05:00,mnr,12.59
2024-03-25T06:06:00,mnr,14.48
2024-03-25T06:07:00,mnr,17.76
2024-03-25T06:08:00,mnr,15.75
2024-03-25T06:09:00,mnr,14.79
2024-03-25T06:10:00,mnr,16.16
2024-03-25T06:11:00,mnr,15.10
2024-03-25T06:12:00,mnr,15.16
2024-03-25T06:13:00,mnr,15.03
2024-03-25T06:14:00,mnr,15.11
2024-03-25T06:15:00,mnr,15.21
2024-03-25T06:16:00,mnr,15.03
2024-03-25T06:17:00,mnr,15.85
2024-03-25T06:18:00,mnr,15.88
2024-03-25T06:19:00,mnr,15.90
2024-03-25T06:20:00,mnr,15.94
2024-03-25T06:21:00,mnr,18.47
2024-03-25T06:22:00,mnr,17.52
2024-03-25T06:23:00,mnr,16.52
2024-03-25T06:24:00,mnr,17.19
2024-03-25T06:25:00,mnr,17.81
2024-03-25T06:26:00,mnr,17.79
2024-03-25T06:27:00,mnr,17.21
2024-03-25T06:28:00,mnr,17.55
2024-03-25T06:29:00,mnr,18.14
2024-03-25T06:30:00,mnr,17.84
2024-03-25T06:31:00,mnr,17.36
2024-03-25T06:32:00,mnr,17.31
2024-03-25T06:33:00,mnr,17.03
2024-03-25T06:34:00,mnr,16.99
2024-03-25T06:35:00,mnr,16.98
2024-03-25T06:36:00,mnr,17.17
2024-03-25T06:37:00,mnr,16.94
2024-03-25T06:38:00,mnr,16.75
2024-03-25T06:39:00,mnr,16.73
2024-03-25T06:40:00,mnr,16.55
2024-03-25T06:41:00,mnr,17.12
2024-03-25T06:42:00,mnr,16.52
2024-03-25T06:43:00,mnr,16.28
2024-03-25T06:44:00,mnr,16.25
2024-03-25T06:45:00,mnr,16.18
2024-03-25T06:46:00,mnr,17.65
2024-03-25T06:47:00,mnr,16.03
2024-03-25T06:48:00,mnr,16.72
2024-03-25T06:49:00,mnr,15.65
2024-03-25T06:50:00,mnr,15.64
2024-03-25T06:51:00,mnr,15.62
2024-03-25T06:52:00,mnr,15.64
2024-03-25T06:53:00,mnr,15.60
2024-03-25T06:54:00,mnr,15.67
2024-03-25T06:55:00,mnr,15.50
2024-03-25T06:56:00,mnr,15.73
2024-03-25T06:57:00,mnr,15.50
2024-03-25T06:58:00,mnr,15.45
2024-03-25T06:59:00,mnr,15.37
2024-03-25T07:00:00,mnr,15.37
2024-03-25T07:01:00,mnr,17.20
2024-03-25T07:02:00,mnr,17.58
2024-03-25T07:03:00,mnr,16.80
2024-03-25T07:04:00,mnr,16.69
2024-03-25T07:05:00,mnr,16.75
2024-03-25T07:06:00,mnr,17.22
2024-03-25T07:07:00,mnr,16.83
2024-03-25T07:08:00,mnr,16.83
2024-03-25T07:09:00,mnr,15.84
2024-03-25T07:10:00,mnr,15.77
2024-03-25T07:11:00,mnr,15.78
2024-03-25T07:12:00,mnr,15.89
2024-03-25T07:13:00,mnr,15.89
2024-03-25T07:14:00,mnr,15.82
2024-03-25T07:15:00,mnr,15.87
2024-03-25T07:16:00,mnr,15.41
2024-03-25T07:17:00,mnr,15.51
2024-03-25T07:18:00,mnr,17.18
2024-03-25T07:19:00,mnr,15.92
2024-03-25T07:20:00,mnr,15.91
2024-03-25T07:21:00,mnr,15.98
2024-03-25T07:22:00,mnr,15.96
2024-03-25T07:23:00,mnr,25.46
2024-03-25T07:24:00,mnr,17.40
2024-03-25T07:25:00,mnr,16.75
2024-03-25T07:26:00,mnr,17.59
2024-03-25T07:27:00,mnr,16.84
2024-03-25T07:28:00,mnr,18.21
2024-03-25T07:29:00,mnr,18.23
2024-03-25T07:30:00,mnr,17.00
2024-03-25T07:31:00,mnr,17.49
2024-03-25T07:32:00,mnr,17.02
2024-03-25T07:33:00,mnr,17.10
2024-03-25T07:34:00,mnr,17.72
2024-03-25T07:35:00,mnr,17.76
2024-03-25T07:36:00,mnr,17.03
2024-03-25T07:37:00,mnr,17.04
2024-03-25T07:38:00,mnr,17.00
2024-03-25T07:39:00,mnr,16.89
2024-03-25T07:40:00,mnr,16.86
2024-03-25T07:41:00,mnr,16.97
2024-03-25T07:42:00,mnr,17.03
2024-03-25T07:43:00,mnr,16.93
2024-03-25T07:44:00,mnr,16.93
2024-03-25T07:45:00,mnr,16.93
2024-03-25T07:46:00,mnr,16.95
2024-03-25T07:47:00,mnr,16.92
2024-03-25T07:48:00,mnr,16.76
2024-03-25T07:49:00,mnr,16.75
2024-03-25T07:50:00,mnr,16.84
2024-03-25T07:51:00,mnr,17.13
2024-03-25T07:52:00,mnr,16.87
2024-03-25T07:53:00,mnr,16.81
2024-03-25T07:54:00,mnr,16.83
2024-03-25T07:55:00,mnr,16.80
2024-03-25T07:56:00,mnr,16.83
2024-03-25T07:57:00,mnr,17.24
2024-03-25T07:58:00,mnr,16.97
2024-03-25T07:59:00,mnr,16.97
2024-03-25T08:00:00,mnr,16.77
2024-03-25T08:01:00,mnr,16.98
2024-03-25T08:02:00,mnr,16.68
2024-03-25T08:03:00,mnr,16.18
2024-03-25T08:04:00,mnr,16.12
2024-03-25T08:05:00,mnr,16.11
2024-03-25T08:06:00,mnr,16.01
2024-03-25T08:07:00,mnr,16.03
2024-03-25T08:08:00,mnr,16.05
2024-03-25T08:09:00,mnr,16.07
2024-03-25T08:10:00,mnr,16.83
2024-03-25T08:11:00,mnr,16.12
2024-03-25T08:12:00,mnr,15.99
2024-03-25T08:13:00,mnr,16.13
2024-03-25T08:14:00,mnr,17.19
2024-03-25T08:15:00,mnr,16.28
2024-03-25T08:16:00,mnr,16.12
2024-03-25T08:17:00,mnr,16.17
2024-03-25T08:18:00,mnr,16.24
2024-03-25T08:19:00,mnr,16.25
2024-03-25T08:20:00,mnr,16.24
2024-03-25T08:21:00,mnr,16.31
2024-03-25T08:22:00,mnr,17.23
2024-03-25T08:23:00,mnr,16.30
2024-03-25T08:24:00,mnr,16.61
2024-03-25T08:25:00,mnr,16.49
2024-03-25T08:26:00,mnr,17.67
2024-03-25T08:27:00,mnr,17.48
2024-03-25T08:28:00,mnr,16.88
2024-03-25T08:29:00,mnr,13.92
2024-03-25T08:30:00,mnr,16.74
2024-03-25T08:31:00,mnr,17.36
2024-03-25T08:32:00,mnr,16.76
2024-03-25T08:33:00,mnr,17.18
2024-03-25T08:34:00,mnr,27.91
2024-03-25T08:35:00,mnr,18.77
2024-03-25T08:36:00,mnr,19.09
2024-03-25T08:37:00,mnr,18.52
2024-03-25T08:38:00,mnr,19.09
2024-03-25T08:39:00,mnr,18.72
2024-03-25T08:40:00,mnr,19.62
2024-03-25T08:41:00,mnr,21.00
2024-03-25T08:42:00,mnr,19.97
2024-03-25T08:43:00,mnr,21.46
2024-03-25T08:44:00,mnr,20.30
2024-03-25T08:45:00,mnr,19.94
2024-03-25T08:46:00,mnr,19.91
2024-03-25T08:47:00,mnr,20.01
2024-03-25T08:48:00,mnr,19.84
2024-03-25T08:49:00,mnr,19.86
2024-03-25T08:50:00,mnr,19.77
2024-03-25T08:51:00,mnr,19.72
2024-03-25T08:52:00,mnr,19.83
2024-03-25T08:53:00,mnr,20.14
2024-03-25T08:54:00,mnr,20.01
2024-03-25T08:55:00,mnr,21.47
2024-03-25T08:56:00,mnr,21.83
2024-03-25T08:57:00,mnr,21.66
2024-03-25T08:58:00,mnr,21.48
2024-03-25T08:59:00,mnr,21.60
2024-03-25T09:00:00,mnr,21.65
2024-03-25T09:01:00,mnr,22.18
2024-03-25T09:02:00,mnr,21.50
2024-03-25T09:03:00,mnr,21.40
2024-03-25T09:04:00,mnr,20.63
2024-03-25T09:05:00,mnr,20.02
2024-03-25T09:06:00,mnr,19.99
2024-03-25T09:07:00,mnr,20.10
2024-03-25T09:08:00,mnr,20.10
2024-03-25T09:09:00,mnr,20.24
2024-03-25T09:10:00,mnr,20.20
2024-03-25T09:11:00,mnr,20.27
2024-03-25T09:12:00,mnr,20.28
2024-03-25T09:13:00,mnr,20.27
2024-03-25T09:14:00,mnr,21.12
2024-03-25T09:15:00,mnr,20.19
2024-03-25T09:16:00,mnr,20.08
2024-03-25T09:17:00,mnr,20.12
2024-03-25T09:18:00,mnr,20.11
2024-03-25T09:19:00,mnr,20.13
2024-03-25T09:20:00,mnr,20.76
2024-03-25T09:21:00,mnr,20.45
2024-03-25T09:22:00,mnr,21.27
2024-03-25T09:23:00,mnr,20.16
2024-03-25T09:24:00,mnr,19.93
2024-03-25T09:25:00,mnr,20.04
2024-03-25T09:26:00,mnr,21.14
2024-03-25T09:27:00,mnr,20.43
2024-03-25T09:28:00,mnr,20.46
2024-03-25T09:29:00,mnr,20.25
2024-03-25T09:30:00,mnr,20.05
2024-03-25T09:31:00,mnr,16.77
2024-03-25T09:32:00,mnr,20.42
2024-03-25T09:33:00,mnr,17.64
2024-03-25T09:34:00,mnr,30.59
2024-03-25T09:35:00,mnr,20.86
2024-03-25T09:36:00,mnr,20.33
2024-03-25T09:37:00,mnr,20.79
2024-03-25T09:38:00,mnr,21.31
2024-03-25T09:39:00,mnr,28.29
2024-03-25T09:40:00,mnr,21.69
2024-03-25T09:41:00,mnr,20.68
2024-03-25T09:42:00,mnr,22.28
2024-03-25T09:43:00,mnr,24.77
2024-03-25T09:44:00,mnr,22.29
2024-03-25T09:45:00,mnr,22.48
2024-03-25T09:46:00,mnr,21.80
2024-03-25T09:47:00,mnr,22.22
2024-03-25T09:48:00,mnr,22.33
2024-03-25T09:49:00,mnr,23.30
2024-03-25T09:50:00,mnr,22.76
2024-03-25T09:51:00,mnr,23.29
2024-03-25T09:52:00,mnr,22.81
2024-03-25T09:53:00,mnr,22.78
2024-03-25T09:54:00,mnr,23.08
2024-03-25T09:55:00,mnr,23.20
2024-03-25T09:56:00,mnr,24.59
2024-03-25T09:57:00,mnr,22.86
2024-03-25T09:58:00,mnr,24.84
2024-03-25T09:59:00,mnr,25.01
2024-03-25T10:00:00,mnr,24.36
2024-03-25T10:01:00,mnr,24.24
2024-03-25T10:02:00,mnr,24.46
2024-03-25T10:03:00,mnr,22.22
2024-03-25T10:04:00,mnr,22.22
2024-03-25T10:05:00,mnr,22.22
2024-03-25T10:06:00,mnr,23.20
2024-03-25T10:07:00,mnr,22.15
2024-03-25T10:08:00,mnr,22.66
2024-03-25T10:09:00,mnr,22.72
2024-03-25T10:10:00,mnr,22.40
2024-03-25T10:11:00,mnr,22.25
2024-03-25T10:12:00,mnr,22.38
2024-03-25T10:13:00,mnr,21.71
2024-03-25T10:14:00,mnr,22.43
2024-03-25T10:15:00,mnr,22.90
2024-03-25T10:16:00,mnr,22.38
2024-03-25T10:17:00,mnr,22.54
2024-03-25T10:18:00,mnr,22.67
2024-03-25T10:19:00,mnr,21.85
2024-03-25T10:20:00,mnr,21.73
2024-03-25T10:21:00,mnr,22.18
2024-03-25T10:22:00,mnr,22.05
2024-03-25T10:23:00,mnr,22.49
2024-03-25T10:24:00,mnr,23.11
2024-03-25T10:25:00,mnr,22.15
2024-03-25T10:26:00,mnr,22.51
2024-03-25T10:27:00,mnr,22.26
2024-03-25T10:28:00,mnr,23.49
2024-03-25T10:29:00,mnr,22.75
2024-03-25T10:30:00,mnr,22.41
2024-03-25T10:31:00,mnr,22.57
2024-03-25T10:32:00,mnr,22.75
2024-03-25T10:33:00,mnr,21.88
2024-03-25T10:34:00,mnr,21.42
2024-03-25T10:35:00,mnr,22.04
2024-03-25T10:36:00,mnr,22.05
2024-03-25T10:37:00,mnr,21.06
2024-03-25T10:38:00,mnr,18.54
2024-03-25T10:39:00,mnr,20.80
2024-03-25T10:40:00,mnr,22.33
2024-03-25T10:41:00,mnr,20.73
2024-03-25T10:42:00,mnr,22.51
2024-03-25T10:43:00,mnr,20.72
2024-03-25T10:44:00,mnr,20.13
2024-03-25T10:45:00,mnr,25.50
2024-03-25T10:46:00,mnr,21.13
2024-03-25T10:47:00,mnr,22.78
2024-03-25T10:48:00,mnr,20.89
2024-03-25T10:49:00,mnr,21.21
2024-03-25T10:50:00,mnr,20.51
2024-03-25T10:51:00,mnr,21.75
2024-03-25T10:52:00,mnr,21.43
2024-03-25T10:53:00,mnr,22.59
2024-03-25T10:54:00,mnr,20.41
2024-03-25T10:55:00,mnr,20.29
2024-03-25T10:56:00,mnr,20.22
2024-03-25T10:57:00,mnr,20.21
2024-03-25T10:58:00,mnr,20.10
2024-03-25T10:59:00,mnr,20.07
2024-03-25T11:00:00,mnr,19.93
2024-03-25T11:01:00,mnr,20.61
2024-03-25T11:02:00,mnr,20.78
2024-03-25T11:03:00,mnr,20.97
2024-03-25T11:04:00,mnr,21.93
2024-03-25T11:05:00,mnr,22.27
2024-03-25T11:06:00,mnr,21.80
2024-03-25T11:07:00,mnr,20.56
2024-03-25T11:08:00,mnr,19.19
2024-03-25T11:09:00,mnr,20.40
2024-03-25T11:10:00,mnr,16.83
2024-03-25T11:11:00,mnr,21.54
2024-03-25T11:12:00,mnr,20.79
2024-03-25T11:13:00,mnr,21.71
2024-03-25T11:14:00,mnr,20.77
2024-03-25T11:15:00,mnr,20.87
2024-03-25T11:16:00,mnr,18.12
2024-03-25T11:17:00,mnr,20.73
2024-03-25T11:18:00,mnr,20.68
2024-03-25T11:19:00,mnr,20.98
2024-03-25T11:20:00,mnr,21.65
2024-03-25T11:21:00,mnr,20.86
2024-03-25T11:22:00,mnr,20.99
2024-03-25T11:23:00,mnr,20.87
2024-03-25T11:24:00,mnr,20.86
2024-03-25T11:25:00,mnr,20.91
2024-03-25T11:26:00,mnr,20.90
2024-03-25T11:27:00,mnr,20.98
2024-03-25T11:28:00,mnr,21.44
2024-03-25T11:29:00,mnr,21.39
2024-03-25T11:30:00,mnr,21.00
2024-03-25T11:31:00,mnr,22.09
2024-03-25T11:32:00,mnr,21.83
2024-03-25T11:33:00,mnr,21.44
2024-03-25T11:34:00,mnr,22.81
2024-03-25T11:35:00,mnr,22.35
2024-03-25T11:36:00,mnr,31.49
2024-03-25T11:37:00,mnr,21.42
2024-03-25T11:38:00,mnr,22.36
2024-03-25T11:39:00,mnr,21.02
2024-03-25T11:40:00,mnr,21.31
2024-03-25T11:41:00,mnr,21.09
2024-03-25T11:42:00,mnr,21.52
2024-03-25T11:43:00,mnr,21.06
2024-03-25T11:44:00,mnr,21.08
2024-03-25T11:45:00,mnr,21.82
2024-03-25T11:46:00,mnr,21.15
2024-03-25T11:47:00,mnr,21.89
2024-03-25T11:48:00,mnr,21.68
2024-03-25T11:49:00,mnr,21.85
2024-03-25T11:50:00,mnr,21.76
2024-03-25T11:51:00,mnr,21.16
2024-03-25T11:52:00,mnr,21.25
2024-03-25T11:53:00,mnr,21.14
2024-03-25T11:54:00,mnr,21.22
2024-03-25T11:55:00,mnr,21.22
2024-03-25T11:56:00,mnr,21.05
2024-03-25T11:57:00,mnr,21.59
2024-03-25T11:58:00,mnr,20.99
2024-03-25T11:59:00,mnr,22.73
2024-03-25T12:00:00,mnr,21.20
2024-03-25T12:01:00,mnr,21.12
2024-03-25T12:02:00,mnr,21.13
2024-03-25T12:03:00,mnr,21.22
2024-03-25T12:04:00,mnr,21.18
2024-03-25T12:05:00,mnr,21.82
2024-03-25T12:06:00,mnr,21.17
2024-03-25T12:07:00,mnr,21.10
2024-03-25T12:08:00,mnr,21.03
2024-03-25T12:09:00,mnr,21.12
2024-03-25T12:10:00,mnr,21.16
2024-03-25T12:11:00,mnr,19.95
2024-03-25T12:12:00,mnr,19.72
2024-03-25T12:13:00,mnr,19.95
2024-03-25T12:14:00,mnr,21.09
2024-03-25T12:15:00,mnr,19.87
2024-03-25T12:16:00,mnr,20.55
2024-03-25T12:17:00,mnr,18.19
2024-03-25T12:18:00,mnr,17.73
2024-03-25T12:19:00,mnr,17.19
2024-03-25T12:20:00,mnr,17.04
2024-03-25T12:21:00,mnr,18.07
2024-03-25T12:22:00,mnr,16.58
2024-03-25T12:23:00,mnr,17.92
2024-03-25T12:24:00,mnr,18.48
2024-03-25T12:25:00,mnr,19.15
2024-03-25T12:26:00,mnr,19.83
2024-03-25T12:27:00,mnr,20.05
2024-03-25T12:28:00,mnr,29.24
2024-03-25T12:29:00,mnr,20.52
2024-03-25T12:30:00,mnr,20.13
2024-03-25T12:31:00,mnr,20.13
2024-03-25T12:32:00,mnr,20.82
2024-03-25T12:33:00,mnr,20.69
2024-03-25T12:34:00,mnr,19.68
2024-03-25T12:35:00,mnr,20.03
2024-03-25T12:36:00,mnr,19.93
2024-03-25T12:37:00,mnr,19.85
2024-03-25T12:38:00,mnr,20.49
2024-03-25T12:39:00,mnr,21.50
2024-03-25T12:40:00,mnr,21.33
2024-03-25T12:41:00,mnr,31.70
2024-03-25T12:42:00,mnr,31.94
2024-03-25T12:43:00,mnr,20.78
2024-03-25T12:44:00,mnr,19.67
2024-03-25T12:45:00,mnr,19.69
2024-03-25T12:46:00,mnr,20.88
2024-03-25T12:47:00,mnr,22.33
2024-03-25T12:48:00,mnr,23.01
2024-03-25T12:49:00,mnr,22.10
2024-03-25T12:50:00,mnr,21.59
2024-03-25T12:51:00,mnr,20.52
2024-03-25T12:52:00,mnr,20.32
2024-03-25T12:53:00,mnr,20.33
2024-03-25T12:54:00,mnr,20.90
2024-03-25T12:55:00,mnr,20.48
2024-03-25T12:56:00,mnr,21.39
2024-03-25T12:57:00,mnr,20.87
2024-03-25T12:58:00,mnr,21.69
2024-03-25T12:59:00,mnr,20.74
2024-03-25T13:00:00,mnr,22.69
2024-03-25T13:01:00,mnr,21.57
2024-03-25T13:02:00,mnr,20.33
2024-03-25T13:03:00,mnr,21.65
2024-03-25T13:04:00,mnr,20.29
2024-03-25T13:05:00,mnr,20.26
2024-03-25T13:06:00,mnr,20.53
2024-03-25T13:07:00,mnr,21.08
2024-03-25T13:08:00,mnr,20.77
2024-03-25T13:09:00,mnr,20.46
2024-03-25T13:10:00,mnr,21.27
2024-03-25T13:11:00,mnr,22.08
2024-03-25T13:12:00,mnr,20.52
2024-03-25T13:13:00,mnr,20.49
2024-03-25T13:14:00,mnr,20.48
2024-03-25T13:15:00,mnr,20.56
2024-03-25T13:16:00,mnr,20.55
2024-03-25T13:17:00,mnr,20.57
2024-03-25T13:18:00,mnr,20.79
2024-03-25T13:19:00,mnr,20.50
2024-03-25T13:20:00,mnr,20.45
2024-03-25T13:21:00,mnr,20.82
2024-03-25T13:22:00,mnr,21.06
2024-03-25T13:23:00,mnr,20.35
2024-03-25T13:24:00,mnr,20.41
2024-03-25T13:25:00,mnr,20.40
2024-03-25T13:26:00,mnr,19.75
2024-03-25T13:27:00,mnr,19.95
2024-03-25T13:28:00,mnr,19.92
2024-03-25T13:29:00,mnr,20.68